| time (UTC) | temp F | wind direction | speed MPH | gust MPH | rain 1hr in | rain 24hr in | rain mn in | humidity % | barometer mb |
| 20260503043005 | 39 | 336 | 0.0 | 3.0 | 0.00 | 0.02 | 0.00 | 1010.9 | |
| 20260503042504 | 39 | 276 | 0.0 | 3.0 | 0.00 | 0.02 | 0.00 | 1010.9 | |
| 20260503042019 | 39 | 276 | 2.0 | 3.0 | 0.00 | 0.02 | 0.00 | 1010.9 | |
| 20260503041504 | 40 | 276 | 2.0 | 3.0 | 0.00 | 0.02 | 0.00 | 1010.9 | |
| 20260503041004 | 40 | 276 | 0.0 | 3.0 | 0.00 | 0.02 | 0.00 | 1011.0 | |
| 20260503040505 | 40 | 276 | 0.0 | 4.0 | 0.00 | 0.02 | 0.00 | 1010.9 | |
| 20260503040004 | 40 | 276 | 0.0 | 6.0 | 0.00 | 0.02 | 0.00 | 1011.2 | |
| 20260503035504 | 41 | 276 | 0.0 | 6.0 | 0.00 | 0.02 | 0.02 | 1011.2 | |
| 20260503035004 | 41 | 284 | 3.0 | 7.0 | 0.00 | 0.02 | 0.02 | 1011.3 | |
| 20260503034504 | 41 | 294 | 0.0 | 7.0 | 0.00 | 0.02 | 0.02 | 1011.3 | |
| 20260503034004 | 41 | 287 | 0.0 | 6.0 | 0.00 | 0.02 | 0.02 | 1011.3 | |
| 20260503033533 | 41 | 306 | 4.0 | 4.0 | 0.00 | 0.02 | 0.02 | 1011.1 | |
| 20260503033034 | 41 | 327 | 0.0 | 3.0 | 0.00 | 0.02 | 0.02 | 1011.1 | |
| 20260503032504 | 42 | 283 | 0.0 | 2.0 | 0.00 | 0.02 | 0.02 | 1011.0 | |
| 20260503032004 | 42 | 236 | 0.0 | 2.0 | 0.00 | 0.02 | 0.02 | 1011.1 | |
| 20260503031519 | 42 | 235 | 0.0 | 2.0 | 0.00 | 0.02 | 0.02 | 1011.1 | |
| 20260503031004 | 42 | 235 | 0.0 | 3.0 | 0.00 | 0.02 | 0.02 | 1011.2 | |
| 20260503030520 | 43 | 235 | 0.0 | 3.0 | 0.00 | 0.02 | 0.02 | 1011.3 | |
| 20260503030004 | 43 | 235 | 0.0 | 3.0 | 0.00 | 0.02 | 0.02 | 1011.2 | |
| 20260503025505 | 43 | 235 | 0.0 | 3.0 | 0.00 | 0.02 | 0.02 | 1011.3 | |
| 20260503025003 | 43 | 235 | 2.0 | 3.0 | 0.00 | 0.02 | 0.02 | 1011.3 | |
| 20260503024503 | 43 | 235 | 0.0 | 4.0 | 0.00 | 0.02 | 0.02 | 1011.3 | |
| 20260503024004 | 43 | 235 | 2.0 | 6.0 | 0.00 | 0.02 | 0.02 | 1011.3 | |
| 20260503023503 | 43 | 235 | 2.0 | 6.0 | 0.00 | 0.02 | 0.02 | 1011.3 | |
| 20260503023004 | 43 | 235 | 0.0 | 3.0 | 0.00 | 0.02 | 0.02 | 1011.4 | |
| 20260503022504 | 44 | 235 | 0.0 | 3.0 | 0.00 | 0.02 | 0.02 | 1011.5 | |
| 20260503022004 | 44 | 235 | 0.0 | 0.0 | 0.00 | 0.02 | 0.02 | 1011.5 | |
| 20260503021503 | 44 | 235 | 0.0 | 3.0 | 0.00 | 0.02 | 0.02 | 1011.6 | |
| 20260503021018 | 44 | 235 | 0.0 | 6.0 | 0.00 | 0.02 | 0.02 | 1011.6 | |
| 20260503020503 | 44 | 235 | 2.0 | 6.0 | 0.00 | 0.02 | 0.02 | 1011.6 | |
| 20260503020003 | 44 | 235 | 0.0 | 4.0 | 0.00 | 0.02 | 0.02 | 1011.7 | |
| 20260503015503 | 44 | 294 | 0.0 | 4.0 | 0.00 | 0.02 | 0.02 | 1011.6 | |
| 20260503015003 | 44 | 293 | 2.0 | 7.0 | 0.00 | 0.02 | 0.02 | 1011.6 | |
| 20260503014533 | 44 | 287 | 2.0 | 7.0 | 0.00 | 0.02 | 0.02 | 1011.6 | |
| 20260503014004 | 44 | 298 | 0.0 | 6.0 | 0.00 | 0.02 | 0.02 | 1011.7 | |
| 20260503013503 | 44 | 297 | 0.0 | 6.0 | 0.00 | 0.02 | 0.02 | 1011.7 | |
| 20260503013004 | 44 | 294 | 6.0 | 7.0 | 0.00 | 0.02 | 0.02 | 1011.6 | |
| 20260503012503 | 44 | 308 | 6.0 | 7.0 | 0.00 | 0.02 | 0.02 | 1011.6 | |
| 20260503012003 | 44 | 254 | 4.0 | 6.0 | 0.00 | 0.02 | 0.02 | 1011.6 | |
| 20260503011503 | 44 | 295 | 3.0 | 6.0 | 0.00 | 0.02 | 0.02 | 1011.6 | |
| 20260503011003 | 44 | 286 | 0.0 | 6.0 | 0.00 | 0.02 | 0.02 | 1011.7 | |
| 20260503010503 | 45 | 286 | 0.0 | 4.0 | 0.00 | 0.02 | 0.02 | 1011.6 | |
| 20260503010003 | 45 | 286 | 3.0 | 6.0 | 0.00 | 0.02 | 0.02 | 1011.5 | |
| 20260503005532 | 45 | 286 | 0.0 | 6.0 | 0.00 | 0.02 | 0.02 | 1011.4 | |
| 20260503005003 | 45 | 286 | 6.0 | 6.0 | 0.00 | 0.02 | 0.02 | 1011.4 | |
| 20260503004503 | 45 | 253 | 3.0 | 4.0 | 0.00 | 0.02 | 0.02 | 1011.4 | |
| 20260503004003 | 46 | 253 | 2.0 | 4.0 | 0.00 | 0.02 | 0.02 | 1011.5 | |
| 20260503003503 | 46 | 253 | 3.0 | 6.0 | 0.00 | 0.02 | 0.02 | 1011.4 | |
| 20260503003003 | 46 | 238 | 2.0 | 6.0 | 0.00 | 0.02 | 0.02 | 1011.4 | |
| 20260503002503 | 46 | 274 | 2.0 | 4.0 | 0.00 | 0.02 | 0.02 | 1011.3 | |
| 20260503002004 | 46 | 274 | 3.0 | 6.0 | 0.00 | 0.02 | 0.02 | 1011.3 | |
| 20260503001503 | 47 | 274 | 3.0 | 7.0 | 0.00 | 0.02 | 0.02 | 1011.3 | |
| 20260503001004 | 47 | 274 | 3.0 | 7.0 | 0.00 | 0.02 | 0.02 | 1011.3 | |
| 20260503000532 | 47 | 259 | 0.0 | 9.0 | 0.00 | 0.02 | 0.02 | 1011.2 | |
| 20260503000048 | 48 | 257 | 6.0 | 9.0 | 0.00 | 0.02 | 0.02 | 1011.3 | |
| 20260502235502 | 48 | 265 | 3.0 | 10.0 | 0.00 | 0.02 | 0.02 | 1011.2 | |
| 20260502235102 | 48 | 259 | 4.0 | 13.0 | 0.00 | 0.02 | 0.02 | 1011.2 | |
| 20260502234504 | 48 | 253 | 0.0 | 13.0 | 0.00 | 0.02 | 0.02 | 1011.2 | |
| 20260502234017 | 48 | 290 | 12.0 | 12.0 | 0.00 | 0.02 | 0.02 | 1011.1 | |
| 20260502233532 | 49 | 264 | 2.0 | 12.0 | 0.00 | 0.02 | 0.02 | 1011.2 | |
| 20260502233002 | 49 | 273 | 0.0 | 9.0 | 0.00 | 0.02 | 0.02 | 1011.0 | |
| 20260502232502 | 49 | 285 | 4.0 | 9.0 | 0.00 | 0.02 | 0.02 | 1011.0 | |
| 20260502232032 | 49 | 253 | 3.0 | 7.0 | 0.00 | 0.02 | 0.02 | 1011.0 | |
| 20260502231502 | 50 | 248 | 0.0 | 7.0 | 0.00 | 0.02 | 0.02 | 1010.9 | |
| 20260502231002 | 50 | 293 | 3.0 | 13.0 | 0.00 | 0.02 | 0.02 | 1010.9 | |
| 20260502230532 | 50 | 311 | 0.0 | 13.0 | 0.00 | 0.02 | 0.02 | 1011.0 | |
| 20260502230002 | 50 | 267 | 13.0 | 13.0 | 0.00 | 0.02 | 0.02 | 1010.9 | |
| 20260502225502 | 50 | 267 | 3.0 | 19.0 | 0.00 | 0.02 | 0.02 | 1011.0 | |
| 20260502225032 | 50 | 273 | 6.0 | 19.0 | 0.00 | 0.02 | 0.02 | 1010.9 | |
| 20260502224533 | 51 | 284 | 7.0 | 18.0 | 0.00 | 0.02 | 0.02 | 1010.8 | |
| 20260502224002 | 51 | 270 | 4.0 | 18.0 | 0.00 | 0.02 | 0.02 | 1010.7 | |
| 20260502223502 | 51 | 350 | 3.0 | 16.0 | 0.00 | 0.02 | 0.02 | 1010.6 | |
| 20260502223032 | 51 | 254 | 4.0 | 18.0 | 0.00 | 0.02 | 0.02 | 1010.8 | |
| 20260502222532 | 52 | 352 | 0.0 | 18.0 | 0.00 | 0.02 | 0.02 | 1010.7 | |
| 20260502222031 | 52 | 267 | 4.0 | 15.0 | 0.00 | 0.02 | 0.02 | 1010.5 | |
| 20260502221533 | 52 | 267 | 3.0 | 15.0 | 0.00 | 0.02 | 0.02 | 1010.5 | |
| 20260502221031 | 52 | 265 | 3.0 | 15.0 | 0.00 | 0.02 | 0.02 | 1010.5 | |
| 20260502220532 | 53 | 342 | 9.0 | 13.0 | 0.00 | 0.02 | 0.02 | 1010.5 | |
| 20260502220033 | 53 | 43 | 6.0 | 13.0 | 0.00 | 0.02 | 0.02 | 1010.6 | |
| 20260502215531 | 53 | 264 | 3.0 | 13.0 | 0.00 | 0.02 | 0.02 | 1010.5 | |
| 20260502215001 | 54 | 263 | 6.0 | 16.0 | 0.00 | 0.02 | 0.02 | 1010.6 | |
| 20260502214532 | 54 | 250 | 7.0 | 16.0 | 0.00 | 0.02 | 0.02 | 1010.5 | |
| 20260502214031 | 54 | 285 | 13.0 | 16.0 | 0.00 | 0.02 | 0.02 | 1010.4 | |
| 20260502213502 | 54 | 248 | 3.0 | 15.0 | 0.00 | 0.02 | 0.02 | 1010.4 | |
| 20260502213031 | 55 | 351 | 3.0 | 18.0 | 0.00 | 0.02 | 0.02 | 1010.3 | |
| 20260502212546 | 54 | 251 | 7.0 | 18.0 | 0.00 | 0.02 | 0.02 | 1010.3 | |
| 20260502212101 | 55 | 260 | 7.0 | 16.0 | 0.00 | 0.02 | 0.02 | 1010.3 | |
| 20260502211531 | 55 | 235 | 9.0 | 18.0 | 0.00 | 0.02 | 0.02 | 1010.4 | |
| 20260502211116 | 55 | 277 | 10.0 | 18.0 | 0.00 | 0.02 | 0.02 | 1010.2 | |
| 20260502210602 | 55 | 253 | 4.0 | 16.0 | 0.00 | 0.02 | 0.02 | 1010.2 | |
| 20260502210031 | 55 | 271 | 12.0 | 18.0 | 0.00 | 0.02 | 0.02 | 1010.2 | |
| 20260502205531 | 56 | 226 | 4.0 | 18.0 | 0.00 | 0.02 | 0.02 | 1010.3 | |
| 20260502205032 | 56 | 249 | 6.0 | 13.0 | 0.00 | 0.02 | 0.02 | 1010.2 | |
| 20260502204532 | 56 | 264 | 13.0 | 13.0 | 0.00 | 0.02 | 0.02 | 1010.2 | |
| 20260502204031 | 55 | 260 | 9.0 | 18.0 | 0.00 | 0.02 | 0.02 | 1010.1 | |
| 20260502203532 | 55 | 0 | 3.0 | 18.0 | 0.00 | 0.02 | 0.02 | 1010.2 | |
| 20260502203031 | 55 | 264 | 9.0 | 18.0 | 0.00 | 0.02 | 0.02 | 1010.2 | |
| 20260502202531 | 55 | 254 | 10.0 | 18.0 | 0.00 | 0.02 | 0.02 | 1010.2 | |
| 20260502202033 | 54 | 248 | 7.0 | 16.0 | 0.00 | 0.02 | 0.02 | 1010.1 | |
| 20260502201546 | 54 | 280 | 10.0 | 19.0 | 0.00 | 0.02 | 0.02 | 1010.1 | |
| 20260502201045 | 55 | 292 | 9.0 | 19.0 | 0.00 | 0.02 | 0.02 | 1010.2 | |
| 20260502200532 | 56 | 276 | 7.0 | 15.0 | 0.00 | 0.02 | 0.02 | 1010.2 | |
| 20260502200031 | 56 | 291 | 4.0 | 16.0 | 0.00 | 0.02 | 0.02 | 1010.1 | |
| 20260502195532 | 56 | 297 | 9.0 | 16.0 | 0.00 | 0.02 | 0.02 | 1010.2 | |
| 20260502195031 | 56 | 303 | 16.0 | 19.0 | 0.00 | 0.02 | 0.02 | 1010.2 | |
| 20260502194531 | 56 | 218 | 6.0 | 19.0 | 0.00 | 0.02 | 0.02 | 1010.2 | |
| 20260502194031 | 55 | 259 | 7.0 | 15.0 | 0.00 | 0.02 | 0.02 | 1010.3 | |
| 20260502193531 | 55 | 287 | 4.0 | 13.0 | 0.00 | 0.02 | 0.02 | 1010.2 | |
| 20260502193031 | 55 | 275 | 6.0 | 18.0 | 0.00 | 0.02 | 0.02 | 1010.3 | |
| 20260502192531 | 55 | 263 | 2.0 | 18.0 | 0.00 | 0.02 | 0.02 | 1010.3 | |
| 20260502192031 | 55 | 272 | 4.0 | 15.0 | 0.00 | 0.02 | 0.02 | 1010.2 | |
| 20260502191531 | 56 | 192 | 7.0 | 15.0 | 0.00 | 0.02 | 0.02 | 1010.4 | |
| 20260502191030 | 56 | 294 | 0.0 | 16.0 | 0.00 | 0.02 | 0.02 | 1010.4 | |
| 20260502190530 | 57 | 245 | 0.0 | 16.0 | 0.00 | 0.02 | 0.02 | 1010.3 | |
| 20260502190030 | 57 | 272 | 10.0 | 13.0 | 0.00 | 0.02 | 0.02 | 1010.4 | |
| 20260502185530 | 57 | 181 | 3.0 | 12.0 | 0.00 | 0.02 | 0.02 | 1010.3 | |
| 20260502185031 | 57 | 187 | 10.0 | 16.0 | 0.00 | 0.02 | 0.02 | 1010.3 | |
| 20260502184530 | 57 | 269 | 4.0 | 16.0 | 0.00 | 0.02 | 0.02 | 1010.3 | |
| 20260502184030 | 57 | 266 | 13.0 | 18.0 | 0.00 | 0.02 | 0.02 | 1010.3 | |
| 20260502183530 | 57 | 172 | 3.0 | 18.0 | 0.00 | 0.02 | 0.02 | 1010.3 | |
| 20260502183045 | 57 | 208 | 6.0 | 13.0 | 0.00 | 0.02 | 0.02 | 1010.2 | |
| 20260502182530 | 57 | 239 | 7.0 | 15.0 | 0.00 | 0.02 | 0.02 | 1010.3 | |
| 20260502182030 | 56 | 287 | 7.0 | 15.0 | 0.00 | 0.02 | 0.02 | 1010.3 | |
| 20260502181530 | 56 | 233 | 2.0 | 13.0 | 0.00 | 0.02 | 0.02 | 1010.3 | |
| 20260502181029 | 56 | 176 | 4.0 | 10.0 | 0.00 | 0.02 | 0.02 | 1010.3 | |
| 20260502180529 | 56 | 232 | 6.0 | 12.0 | 0.00 | 0.02 | 0.02 | 1010.4 | |
| 20260502164043 | 52 | 261 | 0.0 | 15.0 | 0.00 | 0.02 | 0.02 | 1010.9 | |
| 20260502163528 | 53 | 305 | 3.0 | 15.0 | 0.00 | 0.02 | 0.02 | 1010.8 | |
| 20260502163029 | 53 | 264 | 4.0 | 12.0 | 0.00 | 0.02 | 0.02 | 1010.8 | |
| 20260502162529 | 53 | 279 | 0.0 | 13.0 | 0.00 | 0.02 | 0.02 | 1010.7 | |
| 20260502162028 | 54 | 259 | 6.0 | 16.0 | 0.00 | 0.02 | 0.02 | 1010.8 | |
| 20260502161528 | 54 | 288 | 10.0 | 16.0 | 0.00 | 0.02 | 0.02 | 1010.8 | |
| 20260502161029 | 54 | 291 | 0.0 | 15.0 | 0.00 | 0.02 | 0.02 | 1010.6 | |
| 20260502160528 | 55 | 227 | 9.0 | 16.0 | 0.00 | 0.02 | 0.02 | 1010.7 | |
| 20260502152028 | 52 | 257 | 7.0 | 9.0 | 0.00 | 0.02 | 0.02 | 1011.0 | |
| 20260502151528 | 51 | 230 | 7.0 | 9.0 | 0.00 | 0.02 | 0.02 | 1011.1 | |
| 20260502151043 | 51 | 278 | 3.0 | 10.0 | 0.00 | 0.02 | 0.02 | 1011.1 | |
| 20260502150528 | 51 | 263 | 4.0 | 10.0 | 0.00 | 0.02 | 0.02 | 1010.9 | |
| 20260502130527 | 48 | 297 | 3.0 | 7.0 | 0.00 | 0.02 | 0.02 | 1011.4 | |
| 20260502123556 | 46 | 232 | 4.0 | 10.0 | 0.00 | 0.02 | 0.02 | 1011.2 | |
| 20260502123028 | 46 | 244 | 4.0 | 7.0 | 0.00 | 0.02 | 0.02 | 1011.3 | |
| 20260502122526 | 46 | 183 | 3.0 | 7.0 | 0.00 | 0.02 | 0.02 | 1011.2 | |
| 20260502122026 | 46 | 276 | 4.0 | 10.0 | 0.00 | 0.02 | 0.02 | 1011.1 | |
| 20260502121528 | 46 | 258 | 3.0 | 12.0 | 0.00 | 0.02 | 0.02 | 1011.1 | |
| 20260502121027 | 46 | 249 | 6.0 | 12.0 | 0.00 | 0.02 | 0.02 | 1011.1 | |
| 20260502120611 | 46 | 251 | 3.0 | 9.0 | 0.00 | 0.02 | 0.02 | 1011.1 | |
| 20260502115526 | 46 | 222 | 3.0 | 6.0 | 0.00 | 0.02 | 0.02 | 1011.2 | |
| 20260502115111 | 45 | 270 | 2.0 | 9.0 | 0.00 | 0.02 | 0.02 | 1011.1 | |
| 20260502114558 | 45 | 245 | 6.0 | 9.0 | 0.00 | 0.02 | 0.02 | 1011.1 | |
| 20260502114026 | 45 | 292 | 4.0 | 7.0 | 0.00 | 0.02 | 0.02 | 1011.1 | |
| 20260502113526 | 45 | 249 | 0.0 | 9.0 | 0.00 | 0.02 | 0.02 | 1011.0 | |
| 20260502113026 | 45 | 237 | 6.0 | 9.0 | 0.00 | 0.02 | 0.02 | 1011.0 | |
| 20260502112526 | 44 | 278 | 1.0 | 7.0 | 0.00 | 0.02 | 0.02 | 1011.0 | |
| 20260502112026 | 44 | 249 | 7.0 | 10.0 | 0.00 | 0.02 | 0.02 | 1010.9 | |
| 20260502111526 | 44 | 227 | 4.0 | 10.0 | 0.00 | 0.02 | 0.02 | 1010.9 | |
| 20260502111027 | 44 | 259 | 0.0 | 11.0 | 0.00 | 0.02 | 0.02 | 1010.8 | |
| 20260502110526 | 44 | 293 | 3.0 | 11.0 | 0.00 | 0.02 | 0.02 | 1010.8 | |
| 20260502110025 | 45 | 277 | 4.0 | 10.0 | 0.00 | 0.02 | 0.02 | 1010.7 | |
| 20260502105526 | 45 | 263 | 7.0 | 11.0 | 0.00 | 0.02 | 0.02 | 1010.7 | |
| 20260502105026 | 45 | 274 | 9.0 | 11.0 | 0.00 | 0.02 | 0.02 | 1010.7 | |
| 20260502104526 | 45 | 255 | 4.0 | 7.0 | 0.00 | 0.02 | 0.02 | 1010.5 | |
| 20260502104026 | 45 | 223 | 3.0 | 6.0 | 0.00 | 0.02 | 0.02 | 1010.5 | |
| 20260502103541 | 45 | 292 | 0.0 | 6.0 | 0.00 | 0.02 | 0.02 | 1010.4 | |
| 20260502103025 | 45 | 228 | 0.0 | 7.0 | 0.00 | 0.02 | 0.02 | 1010.3 | |
| 20260502102527 | 45 | 289 | 1.0 | 9.0 | 0.00 | 0.02 | 0.02 | 1010.3 | |
| 20260502102027 | 45 | 267 | 3.0 | 9.0 | 0.00 | 0.02 | 0.02 | 1010.4 | |
| 20260502101526 | 45 | 254 | 1.0 | 4.0 | 0.00 | 0.02 | 0.02 | 1010.4 | |
| 20260502101025 | 45 | 254 | 3.0 | 4.0 | 0.00 | 0.02 | 0.02 | 1010.3 | |
| 20260502100555 | 46 | 284 | 1.0 | 4.0 | 0.00 | 0.02 | 0.02 | 1010.2 | |
| 20260502091525 | 46 | 259 | 3.0 | 4.0 | 0.00 | 0.02 | 0.02 | 1010.0 | |
| 20260502091025 | 46 | 259 | 0.0 | 4.0 | 0.00 | 0.02 | 0.02 | 1009.7 | |
| 20260502090555 | 46 | 259 | 0.0 | 4.0 | 0.00 | 0.02 | 0.02 | 1009.9 | |
| 20260502071039 | 47 | 259 | 0.0 | 0.0 | 0.00 | 0.02 | 0.02 | 1010.3 | |
| 20260502070524 | 47 | 259 | 0.0 | 1.0 | 0.00 | 0.02 | 0.02 | 1010.3 | |
| 20260502070024 | 47 | 259 | 0.0 | 1.0 | 0.00 | 0.02 | 0.02 | 1010.4 | |
| 20260502065524 | 47 | 259 | 0.0 | 0.0 | 0.00 | 0.02 | 0.02 | 1010.2 | |
| 20260502065024 | 47 | 259 | 0.0 | 1.0 | 0.00 | 0.02 | 0.02 | 1010.2 | |
| 20260502064541 | 47 | 259 | 0.0 | 1.0 | 0.00 | 0.02 | 0.02 | 1010.2 | |
| 20260502064024 | 47 | 259 | 0.0 | 0.0 | 0.00 | 0.02 | 0.02 | 1010.2 | |
| 20260502063525 | 47 | 259 | 0.0 | 0.0 | 0.00 | 0.02 | 0.02 | 1010.1 | |
| 20260502063039 | 47 | 259 | 0.0 | 0.0 | 0.00 | 0.02 | 0.02 | 1010.1 | |
| 20260502062524 | 47 | 259 | 0.0 | 0.0 | 0.00 | 0.02 | 0.02 | 1009.9 | |
| 20260502062024 | 47 | 259 | 0.0 | 0.0 | 0.00 | 0.02 | 0.02 | 1010.0 | |
| 20260502061554 | 47 | 259 | 0.0 | 0.0 | 0.00 | 0.02 | 0.02 | 1010.2 | |
| 20260502061025 | 47 | 259 | 0.0 | 0.0 | 0.00 | 0.02 | 0.02 | 1010.3 | |
| 20260502060524 | 47 | 259 | 0.0 | 0.0 | 0.00 | 0.02 | 0.02 | 1010.4 | |
| 20260502060024 | 47 | 259 | 0.0 | 0.0 | 0.00 | 0.02 | 0.02 | 1010.5 | |
| 20260502055524 | 47 | 259 | 0.0 | 0.0 | 0.00 | 0.02 | 0.02 | 1010.5 | |
| 20260502055109 | 47 | 259 | 0.0 | 0.0 | 0.01 | 0.02 | 0.02 | 1010.5 | |
| 20260502054609 | 47 | 259 | 0.0 | 0.0 | 0.02 | 0.02 | 0.02 | 1010.3 | |
| 20260502054024 | 47 | 259 | 0.0 | 0.0 | 0.02 | 0.02 | 0.02 | 1010.4 | |
| 20260502053524 | 47 | 259 | 0.0 | 0.0 | 0.02 | 0.02 | 0.02 | 1010.5 | |
| 20260502053024 | 47 | 259 | 0.0 | 0.0 | 0.02 | 0.02 | 0.02 | 1010.6 | |
| 20260502052524 | 47 | 259 | 0.0 | 0.0 | 0.02 | 0.02 | 0.02 | 1010.7 | |
| 20260502052025 | 47 | 259 | 0.0 | 0.0 | 0.02 | 0.02 | 0.02 | 1010.8 | |
| 20260502051524 | 47 | 259 | 0.0 | 0.0 | 0.02 | 0.02 | 0.02 | 1010.8 | |
| 20260502051024 | 47 | 259 | 0.0 | 0.0 | 0.02 | 0.02 | 0.02 | 1010.7 | |
| 20260502050523 | 47 | 259 | 0.0 | 0.0 | 0.02 | 0.02 | 0.02 | 1010.7 | |
| 20260502050023 | 48 | 259 | 0.0 | 1.0 | 0.02 | 0.02 | 0.02 | 1010.6 | |
| 20260502045524 | 48 | 259 | 0.0 | 4.0 | 0.02 | 0.02 | 0.02 | 1010.8 | |
| 20260502045023 | 48 | 259 | 0.0 | 4.0 | 0.01 | 0.01 | 0.01 | 1010.8 | |
| 20260502044523 | 48 | 259 | 0.0 | 3.0 | 0.00 | 0.00 | 0.00 | 1011.0 | |
| 20260502044024 | 48 | 259 | 0.0 | 4.0 | 0.00 | 0.00 | 0.00 | 1011.0 | |
| 20260502043523 | 48 | 259 | 1.0 | 4.0 | 0.00 | 0.00 | 0.00 | 1010.7 |